星链-35603(STARLINK-35603)

导读

STARLINK-35603是美国SpaceX星链星座的卫星,于2025年10月22日发射入轨,属于星链互联网星座组网部署的一部分。星链项目旨在为全球提供高速低延迟卫星互联网服务,覆盖偏远地区与全球网络盲区,该卫星的发射进一步扩充了星链星座的在轨规模,推进全球卫星互联网络的建设。

基本信息
目录编号:
66141
目录名称:
STARLINK-35603
国际标识:
2025-237AD
轨道中心:
EARTH
卫星名称:
星链-35603
卫星全名:
星链-35603(STARLINK-35603)
卫星状态:
在轨 (已飞行317 天)
发射日期:
2025-10-22 UTC
国别 :
美国 (US)
星等 :
--
轨道信息
数据来源 国际轨道数据
星历时间: 2026-09-02T21:03:51+0800
1天前
查看轨道信息
半长轴: 6840.825km
偏心率: 0.0001387
轨道倾角: 53.159°
近地点辐角 71.464°
升交点赤经 295.605°
平近点角 288.651°
近地点: 461.739km
远地点: 463.637km
周期: 93.847分钟
每日圈数: 15.344052
详细信息
固有亮度:
5
最大亮度:
2.5
卫星平台:
Starlink V1.0
覆盖范围:
全球
运营商:
太空探索技术公司
运营商所在国:
美国
制造商(研发单位):
太空探索技术公司
制造商所在国:
美国
使用方式:
暂无
卫星简介
Starlink 计划是 SpaceX 推出的全球卫星互联网项目,通过发射低轨道卫星,为全球尤其是偏远地区提供高速、低延迟的互联网服务。自 2019 年起,Starlink 已部署数千颗卫星,旨在缩小全球数字鸿沟,推动互联网普及。该项目还为军事、航空等行业提供通信支持,带来广泛经济效益。
2D轨道图
3D轨道图
轨道高度分析图
轨道倾角分析图
轨道综合分析图
查看轨道综合分析图
交会数据列表
事件ID 空间交会对象 最接近时刻(TCA) 交会距离 交会风险概率(CRP) 交会风险指数(CRI) 操作
CDM_260903-165006-614106-615622
2026-09-03T
16:50:32+0000
0.441 km
远距离
1.005139E-4 高风险 0.75
CDM_260904-192906-447706-614121
2026-09-04T
19:29:30+0000
0.667 km
远距离
6.192906E-5 中风险 0.71
CDM_260905-084606-447706-614121
2026-09-05T
08:46:42+0000
0.797 km
远距离
3.564131E-5 中风险 0.66
CDM_260905-140205-114906-614121
2026-09-05T
14:02:14+0000
1.200 km
极远距离
8.838168E-6 低风险 0.54
CDM_260903-204506-614106-615621
2026-09-03T
20:45:00+0000
1.439 km
极远距离
2.422075E-6 低风险 0.43
CDM_260831-093406-324006-614123
2026-08-31T
09:34:49+0000
2.224 km
极远距离
2.209753E-6 低风险 0.42
CDM_260905-071206-447706-614121
2026-09-05T
07:12:55+0000
1.916 km
极远距离
2.062801E-6 低风险 0.41
CDM_260904-210306-447706-614121
2026-09-04T
21:03:17+0000
1.946 km
极远距离
1.981517E-6 低风险 0.41
CDM_260904-175506-447706-614121
2026-09-04T
17:55:43+0000
2.868 km
极远距离
9.536165E-7 极低风险 0.35